Location: Recife
(8.0585°S, 34.8848°W)
Time: 13:27:32
(UTC-03:00)

Vanguard 2 - Pass Details

Date: 18 April 2026
Orbit: 553 x 2895 km, 32.9° (Epoch: 13 May)

Event Time Altitude Azimuth Distance (km) Brightness Sun altitude
Exits shadow 00:26:39 12° 133° (SE) 5,080 11.7 -73.1°
Drops below altitude 10° 00:27:32 10° 131° (SE) 5,196 11.8 -72.9°
Sets 00:32:13 0° 119° (ESE) 5,902 12.2 -71.7°
